User: anonymous   Login
Location: Unspecified
(0.0000°N, 0.0000°E)
Time: 12:05:07
(UTC+02:00)
Language:

Cosmos 2263 Rocket - Orbit

View from above orbital plane
View from above orbital plane
View from above satellite
View from above satellite

Ground track
Ground track

The orbit data is extracted from the following two-line orbital elements,

1 22803U 93059B   16272.98907416  .00000067  00000-0  57490-4 0  9995
2 22803  70.9892  79.8322 0015298  59.3063 300.9566 14.16754866191282
Epoch (UTC): 28 September 2016 23:44:16
Eccentricity: 0.0015298
inclination: 70.9892°
perigee height: 825 km
apogee height: 847 km
right ascension of ascending node: 79.8322°
argument of perigee: 59.3063°
revolutions per day: 14.16754866
mean anomaly at epoch: 300.9566°
orbit number at epoch: 19128

The dashed part of the orbit path shows where the satellite is in the earth's shadow,  

DLR